[[{"header":{"parameterUnit":"m.s-1","parameterCategory":2,"la1":30.2991,"la2":30.254,"lo1":-89.0895,"lo2":-89.0444,"dy":0.0017,"dx":0.0017,"nx":28,"ny":28,"refTime":"2024-06-23T21:00:00:Z","depth":"0","parameterNumber":2,"parameterNumberName":"U-component_of_CURRENTS"},"data":[0,0,0,0,0,0,0,0,0,0,0,0,0,0,0,0,0,0,0,0,0,0,0,0,0,0,0,0,0,0,0,0,0,0,0,0,0,0,0,0,0,0,0,0,0,0,0,0,0,0,0,0,0,0,0,0,0,0,0.4532,0.4534,0,0.4728,0.473,0.4732,0.4839,0.484,0.4841,0.4841,0.5143,0.5151,0.5158,0,0,0,0,0,0,0,0,0,0,0,0,0,0.43,0.4303,0.4532,0.4534,0.4537,0.4727,0.473,0.4732,0.4839,0.484,0.4841,0.4842,0.5141,0.515,0.5159,0,0,0,0,0,0,0,0,0,0,0,0,0,0.4435,0.4304,0.4531,0.4616,0.4626,0.4727,0.473,0.4733,0.4839,0.484,0.4841,0.4842,0.5138,0.5149,0.516,0.521,0,0,0.5194,0.5199,0,0,0,0,0,0,0,0,0.4427,0.4442,0.4601,0.4611,0.4622,0.4763,0.4759,0.4899,0.4839,0.4754,0.4841,0.4842,0.5028,0.5048,0.5076,0.5224,0.5237,0.5195,0.5202,0.5207,0.521,0,0,0,0,0,0,0,0.4417,0.4435,0.4606,0.4604,0.4617,0.4662,0.4681,0.4785,0.4882,0.4762,0.4771,0.4799,0.5034,0.5065,0.5084,0.5241,0.5195,0.5205,0.5211,0.5216,0.5537,0.5539,0,0,0,0,0,0,0.4398,0.4426,0.4599,0.4612,0.4529,0.4666,0.4687,0.4714,0.4879,0.4906,0.4798,0.4803,0.5045,0.5071,0.5096,0.5272,0.5206,0.5217,0.5223,0.5535,0.5538,0.554,0,0,0,0,0,0,0.4392,0.4411,0.4592,0.4526,0.4553,0.4669,0.4698,0.4717,0.4762,0.4906,0.4934,0.4824,0.5047,0.508,0.5237,0.528,0.5222,0.5232,0.5533,0.5536,0.5539,0.5556,0,0,0,0,0,0,0.4384,0.4407,0.442,0.4525,0.4556,0.467,0.4698,0.4721,0.4779,0.4788,0.4938,0.4966,0.505,0.522,0.5248,0.5295,0.5241,0.5531,0.5535,0.5538,0.5554,0.5559,0.5565,0,0,0,0,0,0.4375,0.4396,0.4419,0.4441,0.4569,0.4671,0.4692,0.4774,0.4778,0.4812,0.4931,0.4962,0.526,0.5232,0.5265,0.5315,0.5529,0.5534,0.5538,0.5551,0.5558,0.5564,0,0,0,0,0,0,0.4309,0.4412,0.444,0.4492,0.458,0.4691,0.4724,0.477,0.4881,0.4888,0.5009,0.5049,0.5205,0.5249,0.5214,0.5413,0.539,0.5401,0.5389,0.5397,0.5402,0.5393,0.525,0,0,0,0,0,0.4296,0.4333,0.4443,0.4485,0.452,0.4614,0.4661,0.4717,0.4827,0.4874,0.4996,0.5113,0.5241,0.531,0.543,0.5541,0.5534,0.5584,0.559,0.5594,0.5607,0.561,0.5616,0.5553,0.5553,0.5553,0,0,0.428,0.4343,0.4363,0.4472,0.4534,0.4625,0.4644,0.4715,0.482,0.4892,0.5068,0.5153,0.5279,0.5425,0.5492,0.547,0.5609,0.5599,0.5602,0.5613,0.5615,0.5621,0.5626,0.5556,0.5556,0.5555,0,0,0.4266,0.4319,0.4343,0.443,0.4531,0.4614,0.4633,0.476,0.484,0.5002,0.5084,0.5195,0.5392,0.5492,0.5564,0.5663,0.5648,0.5682,0.5701,0.5704,0.5708,0.5712,0.5702,0.5705,0.5671,0.5671,0.5671,0,0.4233,0.43,0.4369,0.4437,0.4519,0.4611,0.4685,0.4797,0.4973,0.5038,0.5066,0.5316,0.5431,0.5582,0.5639,0.5679,0.5659,0.5667,0.5708,0.5712,0.5715,0.5704,0.5707,0.5672,0.5672,0.5672,0.5672,0,0.4258,0.4325,0.435,0.4479,0.4579,0.4652,0.4819,0.4925,0.5021,0.512,0.5281,0.5416,0.5545,0.5598,0.5677,0.576,0.5731,0.572,0.5682,0.5722,0.5708,0.5711,0.5674,0.5674,0.5673,0.5673,0,0,0.4137,0.4323,0.4333,0.441,0.4605,0.4688,0.4869,0.5037,0.5123,0.5276,0.5374,0.5594,0.5599,0.5679,0.5742,0.5768,0.5805,0.5759,0.5758,0.5734,0.5787,0.5576,0.5559,0.5779,0.578,0.5781,0.5763,0,0.4125,0.4244,0.4363,0.4516,0.4597,0.4769,0.4931,0.51,0.5236,0.5363,0.5465,0.5595,0.5649,0.5689,0.5728,0.5796,0.5814,0.581,0.5767,0.5766,0.556,0.5556,0.5244,0.5184,0.5765,0.5765,0.5766,0,0.4108,0.4198,0.4321,0.4539,0.4587,0.4703,0.4934,0.5091,0.5291,0.5384,0.548,0.5565,0.5679,0.5688,0.5775,0.5758,0.5788,0.5814,0.5813,0.5613,0.5559,0.5242,0.5166,0.507,0.5769,0.5769,0.5769,0,0.3997,0.4178,0.4273,0.4354,0.4607,0.4694,0.4837,0.5062,0.5191,0.5368,0.544,0.5552,0.561,0.5657,0.576,0.5757,0.5809,0.5799,0.5632,0.5618,0.5344,0.5302,0.5153,0.5841,0.5841,0.5841,0.5841,0,0.3963,0.4035,0.4214,0.428,0.4397,0.4602,0.4743,0.4909,0.5101,0.522,0.5406,0.5485,0.5604,0.5671,0.5732,0.5673,0.5778,0.5629,0.5592,0.5339,0.5299,0.5196,0.5201,0.5841,0.5841,0.5841,0.5841,0,0.3854,0.3967,0.4079,0.4291,0.4352,0.4436,0.4683,0.4787,0.4986,0.5135,0.5193,0.542,0.5479,0.5581,0.5655,0.5605,0.5422,0.5571,0.526,0.5183,0.4841,0.4859,0.4526,0.4417,0.5316,0.531,0.5306,0,0.3808,0.3855,0.4044,0.41,0.4191,0.4336,0.4447,0.4692,0.4802,0.5089,0.5135,0.5272,0.5329,0.5342,0.5279,0.5247,0.5224,0.4939,0.4872,0.4756,0.4754,0.4648,0.4578,0.4534,0.4523,0.4515,0.4508,0,0.3732,0.3794,0.3896,0.3994,0.4093,0.4227,0.4386,0.4452,0.4731,0.4831,0.4957,0.5019,0.5033,0.4822,0.4783,0.4754,0.4641,0.4752,0.4714,0.418,0.3974,0.3871,0.4639,0.4431,0.4439,0.4444,0.4449,0.4452,0.366,0.3694,0.3813,0.3903,0.3988,0.4088,0.4117,0.4263,0.4365,0.4439,0.4638,0.457,0.4474,0.4332,0.4283,0.3962,0.4096,0.38,0.3853,0.3774,0.3573,0.4153,0.3849,0.3853,0.3857,0.386,0.3863,0,0.3571,0.3642,0.3723,0.3796,0.3804,0.393,0.4045,0.4014,0.3988,0.4064,0.4063,0.3879,0.365,0.3578,0.329,0.3115,0.3035,0.304,0.2868,0.2868,0.3432,0.3304,0.2764,0.2764,0.2764,0.2765,0.2765,0.2765,0.353,0.3575,0.3625,0.3596,0.3625,0.3571,0.359,0.3537,0.3527,0.3334,0.3155,0.3142,0.3142,0.2923,0.2651,0.2581,0.2483,0.2245,0.2426,0.2887,0.2964,0.3038,0.2918,0.2306,0.2305,0.167,0.1665,0.1662]},{"header":{"parameterUnit":"m.s-1","parameterCategory":2,"la1":30.2991,"la2":30.254,"lo1":-89.0895,"lo2":-89.0444,"dy":0.0017,"dx":0.0017,"nx":28,"ny":28,"refTime":"2024-06-23T21:00:00:Z","depth":"0","parameterNumber":3,"parameterNumberName":"V-component_of_CURRENTS"},"data":[0,0,0,0,0,0,0,0,0,0,0,0,0,0,0,0,0,0,0,0,0,0,0,0,0,0,0,0,0,0,0,0,0,0,0,0,0,0,0,0,0,0,0,0,0,0,0,0,0,0,0,0,0,0,0,0,0,0,0.0227,0.0227,0,0.0164,0.0163,0.0162,0.0098,0.0098,0.0097,0.0096,-0.0094,-0.0098,-0.0102,0,0,0,0,0,0,0,0,0,0,0,0,0,0.0261,0.0261,0.0227,0.0226,0.0226,0.0164,0.0163,0.0162,0.0099,0.0098,0.0097,0.0096,-0.0092,-0.0097,-0.0103,0,0,0,0,0,0,0,0,0,0,0,0,0,0.0226,0.0261,0.0227,0.0188,0.0184,0.0164,0.0163,0.0162,0.0099,0.0098,0.0097,0.0096,-0.009,-0.0097,-0.0103,-0.0122,0,0,-0.0123,-0.0126,0,0,0,0,0,0,0,0,0.0228,0.0225,0.0194,0.019,0.0186,0.0139,0.0105,0.0061,0.0099,0.013,0.0096,0.0095,-0.0026,-0.0038,-0.0047,-0.0131,-0.0139,-0.0124,-0.0128,-0.0131,-0.0133,0,0,0,0,0,0,0,0.0231,0.0227,0.0201,0.0194,0.0189,0.0162,0.0156,0.0097,0.0055,0.0127,0.0122,0.0118,-0.0029,-0.0041,-0.0053,-0.0142,-0.0124,-0.013,-0.0134,-0.0136,-0.0279,-0.0279,0,0,0,0,0,0,0.0244,0.023,0.0203,0.0199,0.0206,0.0163,0.0156,0.0154,0.0059,0.0044,0.0119,0.0115,-0.0029,-0.0045,-0.006,-0.0096,-0.0131,-0.0137,-0.0141,-0.0279,-0.0279,-0.0278,0,0,0,0,0,0,0.0245,0.0243,0.0205,0.0214,0.0207,0.0164,0.0162,0.0153,0.0143,0.0054,0.0037,0.0117,-0.0031,-0.0051,-0.0122,-0.0104,-0.014,-0.0146,-0.0279,-0.0279,-0.0279,-0.0163,0,0,0,0,0,0,0.0247,0.0243,0.0246,0.0215,0.0207,0.0202,0.0163,0.0153,0.0142,0.0137,0.0047,0.0028,-0.0033,-0.0112,-0.0129,-0.0113,-0.0151,-0.0279,-0.0279,-0.0279,-0.0167,-0.0159,-0.0152,0,0,0,0,0,0.0248,0.0263,0.0246,0.0243,0.0212,0.0203,0.0197,0.0161,0.0144,0.0146,0.0073,0.0031,-0.0122,-0.0118,-0.0137,-0.0123,-0.0279,-0.0279,-0.0279,-0.0171,-0.0161,-0.0152,0,0,0,0,0,0,0.0283,0.0257,0.0238,0.0245,0.0227,0.0193,0.0193,0.0171,0.0121,0.0107,0.0024,0.0,-0.0052,-0.0107,-0.0101,-0.0164,-0.0203,-0.0207,-0.0114,-0.0106,-0.0098,-0.0039,-0.0156,0,0,0,0,0,0.0292,0.0296,0.0265,0.0273,0.0265,0.0231,0.0223,0.02,0.0154,0.0133,0.0073,0.0,-0.0063,-0.0101,-0.0163,-0.0203,-0.0191,-0.0205,-0.0198,-0.0191,-0.0156,-0.0107,-0.009,-0.0277,-0.0277,-0.0277,0,0,0.0308,0.0296,0.0297,0.0281,0.0263,0.0262,0.0223,0.0219,0.0212,0.0117,0.0086,0.0023,-0.0069,-0.0113,-0.014,-0.0159,-0.0136,-0.019,-0.0183,-0.0152,-0.0104,-0.0086,-0.0069,-0.0277,-0.0277,-0.0277,0,0,0.0352,0.0332,0.0348,0.0337,0.0317,0.0293,0.0297,0.0265,0.0242,0.0203,0.0135,0.0098,-0.0009,-0.0049,-0.0092,-0.0078,-0.0096,-0.0113,-0.0027,0.002,0.0037,0.0053,0.0084,0.0101,-0.0109,-0.0109,-0.0109,0,0.0372,0.0384,0.0353,0.0366,0.0363,0.0313,0.033,0.0299,0.0249,0.0245,0.0204,0.0117,0.0034,0.0008,0.0001,-0.0054,-0.0038,-0.0053,0.0036,0.0052,0.0066,0.0094,0.0112,-0.0104,-0.0104,-0.0105,-0.0105,0,0.0421,0.0429,0.0441,0.0435,0.043,0.0437,0.0395,0.0385,0.035,0.0328,0.0307,0.022,0.0183,0.014,0.0062,0.0111,0.0086,0.0046,0.0028,0.0093,0.0116,0.0133,-0.0095,-0.0097,-0.0099,-0.0101,0,0,0.0475,0.0475,0.048,0.0494,0.0467,0.0475,0.0464,0.0456,0.0479,0.0426,0.0474,0.0361,0.0351,0.0305,0.023,0.0252,0.0339,0.0193,0.0193,0.0251,0.0444,0.0382,0.0393,0.0321,0.0324,0.0327,0.0419,0,0.0522,0.0564,0.0548,0.0588,0.0605,0.0567,0.0576,0.0561,0.0538,0.0569,0.0512,0.0514,0.0399,0.0403,0.0409,0.0361,0.0389,0.0318,0.0349,0.0351,0.0311,0.0413,0.0394,0.0471,0.0435,0.0438,0.044,0,0.0574,0.0596,0.0645,0.0677,0.0684,0.0705,0.0733,0.0735,0.0743,0.0738,0.0746,0.0704,0.0715,0.0622,0.0623,0.0584,0.0533,0.0494,0.0497,0.0419,0.0321,0.0398,0.0502,0.0412,0.0465,0.0463,0.0462,0,0.0632,0.0667,0.0713,0.072,0.0743,0.0774,0.079,0.0799,0.0838,0.0874,0.0935,0.0912,0.095,0.0894,0.078,0.0723,0.0797,0.0709,0.061,0.0604,0.0586,0.0572,0.0636,0.0745,0.0745,0.0744,0.0744,0,0.0687,0.0728,0.0752,0.078,0.0863,0.0853,0.0949,0.0956,0.102,0.1122,0.1049,0.1144,0.1028,0.1026,0.0892,0.0818,0.0892,0.067,0.0645,0.0618,0.0607,0.0521,0.0439,0.0748,0.0747,0.0746,0.0746,0,0.0745,0.0753,0.0818,0.0865,0.0895,0.0958,0.1061,0.1135,0.1176,0.1323,0.1356,0.1369,0.1367,0.1223,0.1154,0.0988,0.0838,0.0844,0.0808,0.0775,0.0558,0.0481,0.0507,0.0475,0.0769,0.0769,0.0768,0,0.0778,0.0815,0.0892,0.095,0.0982,0.1077,0.116,0.1215,0.1314,0.147,0.157,0.1604,0.1653,0.1506,0.1228,0.1019,0.0878,0.0834,0.0707,0.0591,0.0488,0.043,0.0397,0.0729,0.0728,0.0727,0.0727,0,0.0846,0.0872,0.0929,0.1048,0.1144,0.1261,0.1389,0.1494,0.1601,0.174,0.1926,0.1982,0.1819,0.1608,0.1273,0.1091,0.0756,0.081,0.0728,0.051,0.042,0.0361,0.0605,0.0721,0.0721,0.0722,0.0722,0.0722,0.0906,0.0959,0.104,0.1156,0.1278,0.1448,0.1562,0.1722,0.1922,0.2135,0.2177,0.2272,0.1924,0.1467,0.1227,0.0737,0.0729,0.0565,0.0499,0.0467,0.0389,0.0605,0.0651,0.0651,0.0651,0.0651,0.0651,0,0.0974,0.1035,0.1145,0.1296,0.145,0.1497,0.1718,0.1849,0.2103,0.2287,0.2438,0.2294,0.1889,0.1435,0.0772,0.048,0.0383,0.0326,0.0263,0.0256,0.05,0.0449,0.0407,0.0407,0.0407,0.0407,0.0408,0.0408,0.1015,0.112,0.1171,0.1419,0.1539,0.174,0.1869,0.2076,0.2235,0.2436,0.2463,0.2458,0.2101,0.1049,0.0397,0.0246,0.0093,0.0014,-0.0028,0.0133,0.0151,0.0168,0.0105,-0.0009,-0.0009,-0.023,-0.0233,-0.0235]}],[{"header":{"parameterUnit":"m.s-1","parameterCategory":2,"la1":30.2991,"la2":30.254,"lo1":-89.0895,"lo2":-89.0444,"dy":0.0017,"dx":0.0017,"nx":28,"ny":28,"refTime":"2024-06-23T21:00:00:Z","depth":"2","parameterNumber":2,"parameterNumberName":"U-component_of_CURRENTS"},"data":[0,0,0,0,0,0,0,0,0,0,0,0,0,0,0,0,0,0,0,0,0,0,0,0,0,0,0,0,0,0,0,0,0,0,0,0,0,0,0,0,0,0,0,0,0,0,0,0,0,0,0,0,0,0,0,0,0,0,0.3308,0.3308,0,0.3234,0.3233,0.3232,0.3281,0.3284,0.3287,0.329,0.3315,0.3313,0.3311,0,0,0,0,0,0,0,0,0,0,0,0,0,0.3312,0.3312,0.3308,0.3308,0.3308,0.3235,0.3233,0.3231,0.3281,0.3284,0.3288,0.3291,0.3316,0.3313,0.3311,0,0,0,0,0,0,0,0,0,0,0,0,0,0.3275,0.3312,0.3308,0.3329,0.3331,0.3235,0.3233,0.3231,0.328,0.3284,0.3289,0.3293,0.3317,0.3314,0.331,0.3204,0,0,0.3301,0.33,0,0,0,0,0,0,0,0,0.3277,0.3274,0.3326,0.3328,0.3329,0.3278,0.3244,0.3229,0.3279,0.3292,0.329,0.3295,0.3313,0.331,0.3275,0.3205,0.3206,0.3301,0.3299,0.3298,0.3297,0,0,0,0,0,0,0,0.328,0.3277,0.3272,0.3326,0.3328,0.3281,0.3281,0.3239,0.3275,0.3291,0.3296,0.3298,0.3314,0.3278,0.3277,0.3206,0.3301,0.3298,0.3296,0.3295,0.3295,0.3297,0,0,0,0,0,0,0.3308,0.328,0.3274,0.327,0.3322,0.3278,0.3278,0.3284,0.3274,0.3277,0.3294,0.3301,0.3281,0.328,0.3278,0.3412,0.3298,0.3295,0.3293,0.3293,0.3295,0.3297,0,0,0,0,0,0,0.3308,0.3308,0.3277,0.3279,0.3273,0.3276,0.328,0.328,0.3321,0.3276,0.3282,0.3345,0.3285,0.3282,0.328,0.3405,0.3293,0.3291,0.3291,0.3294,0.3296,0.3514,0,0,0,0,0,0,0.3309,0.3309,0.3315,0.3281,0.3274,0.3297,0.3277,0.3276,0.3314,0.3323,0.3319,0.3321,0.3288,0.3285,0.3277,0.3399,0.3288,0.3289,0.3292,0.3295,0.3505,0.3524,0.3541,0,0,0,0,0,0.3309,0.3311,0.3316,0.3315,0.3286,0.33,0.3294,0.3302,0.3313,0.335,0.3317,0.3326,0.3305,0.3281,0.3272,0.3397,0.3287,0.3291,0.3295,0.3497,0.352,0.354,0,0,0,0,0,0,0.3285,0.3315,0.3321,0.3323,0.3348,0.3314,0.3322,0.3336,0.333,0.3339,0.3306,0.3305,0.3381,0.3317,0.3294,0.3402,0.3314,0.3316,0.3471,0.3492,0.351,0.3477,0.3286,0,0,0,0,0,0.3287,0.3327,0.3333,0.3343,0.3354,0.3347,0.335,0.337,0.3359,0.3365,0.3355,0.3343,0.337,0.3375,0.3373,0.3381,0.336,0.3464,0.3482,0.3498,0.3462,0.3537,0.356,0.3311,0.3311,0.3311,0,0,0.3292,0.3301,0.333,0.3347,0.3347,0.3357,0.3362,0.3396,0.3425,0.3362,0.3388,0.3413,0.3388,0.344,0.3469,0.3412,0.3566,0.3503,0.3518,0.3472,0.3544,0.3569,0.3591,0.3314,0.3313,0.3313,0,0,0.3297,0.332,0.335,0.3376,0.3405,0.3396,0.3432,0.3439,0.3478,0.3475,0.3494,0.3556,0.3526,0.3569,0.3577,0.3668,0.3677,0.3717,0.3766,0.3844,0.3865,0.3884,0.3934,0.3955,0.3707,0.3707,0.3708,0,0.3298,0.331,0.3361,0.3378,0.3375,0.3429,0.3429,0.3475,0.3489,0.3495,0.3512,0.3589,0.358,0.3704,0.3735,0.3721,0.3748,0.3703,0.3872,0.3889,0.3905,0.3951,0.3972,0.3718,0.3717,0.3716,0.3715,0,0.3309,0.3328,0.3344,0.3382,0.3395,0.3418,0.3471,0.3523,0.3549,0.3559,0.37,0.3742,0.3785,0.3849,0.3794,0.3955,0.3939,0.3915,0.383,0.3944,0.3985,0.4003,0.3734,0.373,0.3727,0.3724,0,0,0.3282,0.3341,0.3348,0.3368,0.3392,0.3419,0.3466,0.35,0.3599,0.3655,0.3736,0.3847,0.3925,0.3938,0.4022,0.4073,0.4218,0.403,0.4029,0.4099,0.4393,0.4131,0.4125,0.4253,0.4256,0.4258,0.4396,0,0.3264,0.3291,0.3306,0.334,0.335,0.3396,0.344,0.3497,0.3598,0.3702,0.3807,0.3917,0.3967,0.4056,0.4143,0.4181,0.4266,0.418,0.4248,0.4248,0.4019,0.4136,0.3818,0.389,0.4412,0.4415,0.4417,0,0.3241,0.3264,0.3271,0.3328,0.3337,0.3373,0.3483,0.3559,0.3699,0.3752,0.392,0.401,0.4141,0.4159,0.436,0.4315,0.4358,0.4389,0.4396,0.4065,0.4016,0.3846,0.3901,0.4445,0.4443,0.4441,0.4439,0,0.3181,0.3235,0.3237,0.3258,0.3328,0.336,0.3419,0.3564,0.3639,0.3832,0.391,0.4104,0.4225,0.4324,0.4379,0.4385,0.4538,0.4554,0.4393,0.4376,0.4059,0.4005,0.4688,0.4688,0.4688,0.4687,0.4687,0,0.3125,0.3148,0.3246,0.326,0.3298,0.3377,0.3492,0.3583,0.3735,0.3808,0.4002,0.4139,0.4269,0.4371,0.4407,0.4428,0.4584,0.4396,0.439,0.4124,0.4077,0.4493,0.4469,0.4692,0.4691,0.469,0.4689,0,0.3059,0.3108,0.3141,0.3237,0.3268,0.3326,0.3446,0.3578,0.3747,0.3878,0.3898,0.4125,0.4243,0.4367,0.4476,0.4452,0.4468,0.4441,0.4086,0.403,0.4266,0.4251,0.4301,0.4293,0.4286,0.428,0.4276,0,0.3012,0.3033,0.3118,0.3144,0.3194,0.3298,0.3367,0.3515,0.3639,0.3861,0.3899,0.4064,0.4121,0.4221,0.4164,0.4168,0.4337,0.386,0.3778,0.4235,0.4227,0.4223,0.4217,0.35,0.3489,0.3481,0.3474,0,0.2946,0.2997,0.3035,0.308,0.3155,0.3226,0.3353,0.3367,0.3548,0.3655,0.3748,0.3785,0.3904,0.3717,0.3704,0.3675,0.3809,0.3672,0.429,0.3592,0.3474,0.3467,0.3491,0.3395,0.3403,0.3408,0.3413,0.3416,0.29,0.2913,0.2975,0.3011,0.3076,0.3109,0.3106,0.3219,0.3257,0.3293,0.3437,0.3415,0.3427,0.3229,0.3112,0.3054,0.3344,0.3215,0.3247,0.3287,0.3114,0.2984,0.2783,0.2787,0.279,0.2794,0.2796,0,0.2831,0.2863,0.2898,0.2901,0.291,0.301,0.3055,0.2996,0.2932,0.2985,0.2979,0.2695,0.2567,0.263,0.2412,0.2366,0.2413,0.2271,0.2332,0.241,0.248,0.2269,0.1713,0.171,0.1706,0.1703,0,0,0.2794,0.279,0.2802,0.2739,0.2748,0.2695,0.2674,0.2585,0.2566,0.2381,0.2323,0.245,0.2542,0.21,0.202,0.1834,0.2121,0.1759,0.2632,0.2783,0.2849,0.3024,0.2784,0,0,0,0,0]},{"header":{"parameterUnit":"m.s-1","parameterCategory":2,"la1":30.2991,"la2":30.254,"lo1":-89.0895,"lo2":-89.0444,"dy":0.0017,"dx":0.0017,"nx":28,"ny":28,"refTime":"2024-06-23T21:00:00:Z","depth":"2","parameterNumber":3,"parameterNumberName":"V-component_of_CURRENTS"},"data":[0,0,0,0,0,0,0,0,0,0,0,0,0,0,0,0,0,0,0,0,0,0,0,0,0,0,0,0,0,0,0,0,0,0,0,0,0,0,0,0,0,0,0,0,0,0,0,0,0,0,0,0,0,0,0,0,0,0,0.0154,0.0153,0,0.015,0.015,0.015,0.0127,0.0127,0.0126,0.0125,-0.0002,-0.0004,-0.0007,0,0,0,0,0,0,0,0,0,0,0,0,0,0.0162,0.0162,0.0154,0.0153,0.0153,0.015,0.015,0.015,0.0127,0.0126,0.0126,0.0125,-0.0001,-0.0004,-0.0007,0,0,0,0,0,0,0,0,0,0,0,0,0,0.0161,0.0162,0.0154,0.0139,0.0138,0.015,0.015,0.015,0.0128,0.0126,0.0125,0.0124,0.0,-0.0003,-0.0007,-0.0008,0,0,-0.0019,-0.0021,0,0,0,0,0,0,0,0,0.0161,0.0161,0.0142,0.014,0.0139,0.0136,0.0107,0.009,0.0128,0.0134,0.0125,0.0124,0.0032,0.0026,0.0033,-0.0014,-0.002,-0.002,-0.0022,-0.0024,-0.0025,0,0,0,0,0,0,0,0.0161,0.0161,0.0155,0.0142,0.014,0.014,0.0139,0.0104,0.0089,0.0134,0.0131,0.0127,0.0031,0.0037,0.0029,-0.0022,-0.002,-0.0023,-0.0026,-0.0027,-0.006,-0.0058,0,0,0,0,0,0,0.0157,0.0161,0.0155,0.0154,0.0144,0.0141,0.014,0.014,0.0092,0.0084,0.0128,0.0126,0.0044,0.0034,0.0024,0.0003,-0.0024,-0.0028,-0.003,-0.0061,-0.006,-0.0058,0,0,0,0,0,0,0.0157,0.0156,0.0155,0.0155,0.0155,0.0142,0.0143,0.014,0.0142,0.0089,0.0079,0.0131,0.0043,0.003,-0.0,-0.0002,-0.0029,-0.0033,-0.0063,-0.0061,-0.0059,-0.003,0,0,0,0,0,0,0.0157,0.0157,0.016,0.0155,0.0154,0.0161,0.0143,0.0141,0.014,0.0138,0.0088,0.0076,0.0041,0.0006,-0.0004,-0.0008,-0.0036,-0.0065,-0.0062,-0.0059,-0.0033,-0.0027,-0.0022,0,0,0,0,0,0.0158,0.0173,0.016,0.0159,0.0158,0.0162,0.0162,0.015,0.0142,0.0147,0.0118,0.0077,0.0017,0.0004,-0.0009,-0.0014,-0.0066,-0.0063,-0.006,-0.0036,-0.0029,-0.0023,0,0,0,0,0,0,0.0182,0.0171,0.0157,0.0168,0.0161,0.0157,0.0166,0.0155,0.0141,0.0136,0.0087,0.0073,0.0045,0.0025,0.0011,-0.0008,-0.0027,-0.0026,-0.0005,0.0001,0.0007,0.008,-0.0039,0,0,0,0,0,0.0187,0.0195,0.0178,0.0189,0.0186,0.0176,0.0177,0.0167,0.0153,0.0147,0.011,0.0081,0.0054,0.0034,0.0006,-0.0009,-0.0006,-0.0013,-0.0008,-0.0003,0.0053,0.0046,0.0056,-0.0047,-0.0047,-0.0047,0,0,0.0198,0.0195,0.0198,0.0194,0.0191,0.02,0.0175,0.0181,0.0188,0.0132,0.0129,0.0089,0.0055,0.0037,0.0025,0.0016,0.0023,0.0001,0.0005,0.006,0.0051,0.0061,0.007,-0.0044,-0.0045,-0.0045,0,0,0.0234,0.0223,0.024,0.0237,0.0231,0.0223,0.0224,0.0212,0.0207,0.0199,0.0161,0.0147,0.0092,0.0084,0.007,0.0099,0.0048,0.0063,0.0146,0.0137,0.0146,0.0153,0.0144,0.0151,0.0069,0.0069,0.0069,0,0.0248,0.0265,0.0246,0.0263,0.0271,0.0235,0.0259,0.0249,0.0228,0.0248,0.0203,0.0176,0.0134,0.014,0.0152,0.0112,0.0091,0.0111,0.0143,0.0151,0.0158,0.0148,0.0155,0.0071,0.0071,0.007,0.007,0,0.0293,0.0305,0.0319,0.0326,0.0331,0.0345,0.0327,0.0329,0.0312,0.0316,0.0315,0.0259,0.0257,0.0223,0.0195,0.0223,0.0184,0.014,0.0123,0.017,0.0156,0.0162,0.0073,0.0073,0.0072,0.0072,0,0,0.0336,0.0347,0.0354,0.0374,0.0367,0.0384,0.0398,0.0425,0.0467,0.0421,0.0474,0.0423,0.0401,0.0389,0.0325,0.0326,0.034,0.0263,0.0261,0.025,0.031,0.0255,0.0256,0.0274,0.0277,0.0278,0.0269,0,0.0379,0.0425,0.042,0.047,0.0493,0.048,0.051,0.0531,0.0533,0.0569,0.0529,0.0545,0.0453,0.0447,0.0427,0.0371,0.0364,0.0348,0.0274,0.0274,0.0214,0.0265,0.0275,0.0265,0.0275,0.0276,0.0277,0,0.0427,0.0454,0.0508,0.0561,0.0574,0.0596,0.0661,0.0684,0.0725,0.0734,0.0734,0.0699,0.0697,0.0604,0.0538,0.0517,0.044,0.0387,0.0384,0.0345,0.0233,0.0227,0.0277,0.0288,0.0287,0.0287,0.0286,0,0.0477,0.0524,0.0574,0.0586,0.063,0.0666,0.0694,0.0745,0.0808,0.0845,0.0902,0.0852,0.0853,0.0748,0.062,0.0581,0.0545,0.0467,0.0348,0.0341,0.0353,0.0345,0.0447,0.0447,0.0447,0.0447,0.0447,0,0.0527,0.0571,0.06,0.0628,0.0719,0.0726,0.0834,0.0859,0.0933,0.1048,0.0986,0.104,0.0893,0.0836,0.0686,0.0543,0.0583,0.0405,0.0351,0.0359,0.0352,0.038,0.0372,0.0446,0.0446,0.0446,0.0446,0,0.0572,0.0585,0.0654,0.0711,0.0741,0.0805,0.0922,0.1011,0.106,0.1198,0.1224,0.1212,0.1133,0.0964,0.0818,0.0652,0.0508,0.0442,0.0461,0.041,0.0295,0.0289,0.0329,0.0328,0.0326,0.0325,0.0324,0,0.0597,0.0632,0.0718,0.0777,0.0803,0.0902,0.0993,0.1066,0.1175,0.1305,0.1387,0.1359,0.1341,0.1083,0.081,0.0551,0.0509,0.0385,0.0325,0.0348,0.0291,0.0287,0.0283,0.0341,0.034,0.034,0.0339,0,0.0652,0.0678,0.0738,0.0857,0.095,0.1077,0.1203,0.1305,0.1425,0.153,0.1641,0.1632,0.1399,0.1136,0.0777,0.059,0.0421,0.0362,0.0408,0.0358,0.0355,0.0299,0.0296,0.0334,0.0334,0.0335,0.0335,0.0335,0.0701,0.0752,0.0835,0.0951,0.1075,0.1236,0.1344,0.1489,0.1657,0.1793,0.1784,0.175,0.1471,0.0992,0.0693,0.0378,0.0391,0.0263,0.0267,0.0272,0.0263,0.0256,0.0216,0.0216,0.0216,0.0216,0.0216,0,0.0761,0.0818,0.0927,0.1071,0.122,0.1276,0.1486,0.1587,0.1769,0.1858,0.1903,0.161,0.133,0.101,0.0547,0.0266,0.0248,0.0168,0.0214,0.0222,0.0228,0.0218,0.0159,0.0158,0.0157,0.0156,0,0,0.0794,0.0893,0.0944,0.1172,0.1285,0.147,0.1587,0.1732,0.1828,0.1866,0.1835,0.1759,0.1409,0.1055,0.0685,0.043,0.0385,0.0367,0.044,0.0546,0.0556,0.0307,0.0303,0,0,0,0,0]}],[{"header":{"parameterUnit":"m.s-1","parameterCategory":2,"la1":30.2991,"la2":30.254,"lo1":-89.0895,"lo2":-89.0444,"dy":0.0017,"dx":0.0017,"nx":28,"ny":28,"refTime":"2024-06-23T21:00:00:Z","depth":"4","parameterNumber":2,"parameterNumberName":"U-component_of_CURRENTS"},"data":[0,0,0,0,0,0,0,0,0,0,0,0,0,0,0,0,0,0,0,0,0,0,0,0,0,0,0,0,0,0,0,0,0,0,0,0,0,0,0,0,0,0,0,0,0,0,0,0,0,0,0,0,0,0,0,0,0,0,0.1599,0.1599,0,0.1586,0.1585,0.1584,0.1597,0.1599,0.16,0.1601,0.1536,0.1533,0.153,0,0,0,0,0,0,0,0,0,0,0,0,0,0.1633,0.1632,0.1599,0.1599,0.16,0.1586,0.1585,0.1583,0.1597,0.1599,0.16,0.1602,0.1537,0.1534,0.153,0,0,0,0,0,0,0,0,0,0,0,0,0,0.1609,0.1631,0.1598,0.1613,0.1615,0.1586,0.1585,0.1583,0.1596,0.1599,0.1601,0.1603,0.1539,0.1534,0.1529,0.1455,0,0,0.1515,0.1513,0,0,0,0,0,0,0,0,0.161,0.1606,0.161,0.1612,0.1615,0.1605,0.1574,0.1541,0.1596,0.1592,0.1602,0.1604,0.156,0.1553,0.1531,0.1452,0.1449,0.1514,0.1512,0.151,0.1508,0,0,0,0,0,0,0,0.1612,0.1607,0.1582,0.1611,0.1614,0.1621,0.1619,0.1567,0.1554,0.1592,0.1596,0.1611,0.1559,0.1536,0.153,0.1448,0.1515,0.151,0.1507,0.1506,0.1532,0.1535,0,0,0,0,0,0,0.1632,0.1608,0.1583,0.1583,0.163,0.1619,0.1616,0.1597,0.1556,0.1555,0.1609,0.1612,0.1543,0.1535,0.1528,0.154,0.151,0.1505,0.1502,0.1528,0.1533,0.1537,0,0,0,0,0,0,0.1632,0.1628,0.1584,0.1607,0.1603,0.1617,0.1595,0.1596,0.1619,0.1571,0.1568,0.1639,0.1544,0.1534,0.152,0.1534,0.1503,0.1499,0.1524,0.153,0.1535,0.1498,0,0,0,0,0,0,0.1632,0.1627,0.1643,0.1606,0.1603,0.1587,0.1594,0.1594,0.1627,0.1631,0.1594,0.1588,0.1545,0.1528,0.1516,0.1527,0.1495,0.152,0.1527,0.1533,0.1495,0.1501,0.1507,0,0,0,0,0,0.1633,0.1635,0.1643,0.1643,0.1614,0.1588,0.1585,0.1597,0.1627,0.1627,0.1617,0.1591,0.1565,0.1524,0.151,0.152,0.1517,0.1525,0.1532,0.1492,0.15,0.1507,0,0,0,0,0,0,0.1654,0.1637,0.1644,0.1641,0.1632,0.1596,0.1613,0.1621,0.1611,0.1639,0.159,0.1581,0.1572,0.1577,0.1535,0.1567,0.1555,0.156,0.153,0.1537,0.1543,0.1583,0.1491,0,0,0,0,0,0.1668,0.1664,0.1647,0.1646,0.1649,0.1639,0.1645,0.1656,0.1639,0.1641,0.1614,0.1615,0.1585,0.1588,0.1557,0.1554,0.1599,0.1579,0.1585,0.1589,0.1625,0.175,0.1769,0.1563,0.1563,0.1562,0,0,0.1674,0.167,0.1667,0.1653,0.1647,0.1635,0.1645,0.1666,0.1646,0.1632,0.1611,0.1609,0.1588,0.1574,0.158,0.1585,0.1658,0.1599,0.1601,0.1636,0.176,0.178,0.1797,0.1568,0.1567,0.1566,0,0,0.1672,0.1681,0.1678,0.1666,0.1685,0.1675,0.1693,0.1684,0.1674,0.1657,0.1649,0.1689,0.1628,0.1635,0.1623,0.1666,0.1668,0.1666,0.1731,0.1851,0.1868,0.1884,0.1889,0.1906,0.169,0.169,0.169,0,0.1699,0.1671,0.1675,0.1664,0.1668,0.1695,0.1691,0.1662,0.1652,0.1657,0.1664,0.1691,0.1663,0.1681,0.1692,0.1673,0.1712,0.1676,0.1854,0.1872,0.1889,0.1892,0.1911,0.1689,0.169,0.169,0.169,0,0.1671,0.1667,0.1664,0.1653,0.1657,0.1662,0.1641,0.1649,0.1669,0.1664,0.1706,0.1712,0.1766,0.1751,0.1708,0.182,0.179,0.1819,0.1818,0.1907,0.1904,0.1924,0.1688,0.1689,0.1689,0.1689,0,0,0.1687,0.1656,0.1661,0.1647,0.1661,0.165,0.1638,0.1635,0.1658,0.1686,0.1744,0.1729,0.1822,0.1827,0.1836,0.1929,0.2025,0.1929,0.1935,0.1901,0.2218,0.2045,0.2049,0.2086,0.2092,0.2096,0.2136,0,0.1676,0.1648,0.1646,0.1624,0.1605,0.1627,0.1607,0.1621,0.1648,0.1704,0.1778,0.1835,0.1818,0.1892,0.1982,0.2028,0.2093,0.2007,0.217,0.2173,0.1984,0.2075,0.2114,0.2152,0.2157,0.216,0.2163,0,0.1654,0.1635,0.1618,0.1598,0.16,0.1608,0.1643,0.1635,0.1708,0.1747,0.188,0.1941,0.2078,0.2079,0.2241,0.219,0.2213,0.2238,0.2242,0.2123,0.2043,0.2073,0.22,0.2197,0.2194,0.2192,0.2189,0,0.1633,0.1615,0.1606,0.1594,0.1583,0.1602,0.1629,0.1679,0.1705,0.184,0.1936,0.208,0.2215,0.231,0.2361,0.2329,0.2521,0.2489,0.2338,0.2321,0.2473,0.2457,0.262,0.262,0.262,0.262,0.2619,0,0.1591,0.1579,0.1604,0.1575,0.1597,0.1613,0.1666,0.1701,0.1824,0.189,0.2012,0.212,0.2299,0.2409,0.2422,0.244,0.2588,0.2367,0.2354,0.2444,0.2426,0.2481,0.2465,0.2621,0.2621,0.262,0.262,0,0.1536,0.1552,0.1534,0.1551,0.1575,0.1602,0.1696,0.172,0.1858,0.198,0.2054,0.222,0.2346,0.2445,0.2587,0.2513,0.2544,0.2502,0.2541,0.2526,0.2227,0.2209,0.2337,0.2332,0.2328,0.2324,0.2321,0,0.1496,0.1481,0.152,0.1531,0.1546,0.1601,0.1625,0.1738,0.1787,0.2001,0.2057,0.2248,0.2328,0.2381,0.2485,0.2503,0.2471,0.2439,0.2372,0.224,0.2216,0.2204,0.2192,0.2314,0.2313,0.2312,0.2311,0,0.1405,0.1446,0.1423,0.1462,0.1496,0.1515,0.1583,0.1628,0.1762,0.192,0.202,0.2089,0.2212,0.2288,0.2327,0.2331,0.2447,0.2394,0.2402,0.2338,0.2215,0.2191,0.2184,0.2296,0.2299,0.23,0.2301,0,0.1357,0.1334,0.1337,0.1362,0.1407,0.141,0.1453,0.1509,0.1591,0.1836,0.1862,0.2034,0.2195,0.2197,0.2233,0.2236,0.2188,0.2095,0.2118,0.2135,0.2052,0.1864,0.1853,0,0,0,0,0,0.1289,0.1237,0.1235,0.124,0.1286,0.1327,0.1401,0.1452,0.1619,0.1641,0.1754,0.1844,0.1918,0.2004,0.1965,0.2123,0.2184,0.2064,0.2085,0.2215,0.2232,0.2154,0,0,0,0,0,0,0.1235,0.1205,0.1183,0.1145,0.1154,0.1182,0.1232,0.1333,0.1357,0.1546,0.1601,0.1738,0.1841,0.1948,0.1945,0.1966,0.1935,0.2173,0.2167,0.2205,0.2221,0.2234,0.216,0,0,0,0,0]},{"header":{"parameterUnit":"m.s-1","parameterCategory":2,"la1":30.2991,"la2":30.254,"lo1":-89.0895,"lo2":-89.0444,"dy":0.0017,"dx":0.0017,"nx":28,"ny":28,"refTime":"2024-06-23T21:00:00:Z","depth":"4","parameterNumber":3,"parameterNumberName":"V-component_of_CURRENTS"},"data":[0,0,0,0,0,0,0,0,0,0,0,0,0,0,0,0,0,0,0,0,0,0,0,0,0,0,0,0,0,0,0,0,0,0,0,0,0,0,0,0,0,0,0,0,0,0,0,0,0,0,0,0,0,0,0,0,0,0,0.0184,0.0184,0,0.0213,0.0213,0.0214,0.0235,0.0235,0.0235,0.0235,0.0244,0.0244,0.0244,0,0,0,0,0,0,0,0,0,0,0,0,0,0.0158,0.0159,0.0184,0.0184,0.0184,0.0213,0.0213,0.0214,0.0235,0.0235,0.0235,0.0235,0.0243,0.0244,0.0244,0,0,0,0,0,0,0,0,0,0,0,0,0,0.0179,0.0159,0.0184,0.0196,0.0197,0.0213,0.0213,0.0214,0.0235,0.0235,0.0235,0.0235,0.0243,0.0244,0.0244,0.025,0,0,0.0246,0.0246,0,0,0,0,0,0,0,0,0.0178,0.0181,0.0194,0.0195,0.0196,0.0218,0.0207,0.0224,0.0235,0.0224,0.0235,0.0235,0.0231,0.0233,0.0243,0.025,0.0251,0.0246,0.0246,0.0246,0.0246,0,0,0,0,0,0,0,0.0177,0.018,0.0198,0.0194,0.0195,0.0203,0.0207,0.0211,0.023,0.0225,0.0226,0.0224,0.0232,0.0242,0.0243,0.0251,0.0246,0.0246,0.0246,0.0247,0.0273,0.0273,0,0,0,0,0,0,0.0167,0.0178,0.0197,0.0199,0.0183,0.0204,0.0207,0.0213,0.023,0.0232,0.0224,0.0225,0.0242,0.0243,0.0243,0.0283,0.0246,0.0247,0.0247,0.0272,0.0273,0.0273,0,0,0,0,0,0,0.0166,0.0169,0.0196,0.0186,0.019,0.0204,0.0211,0.0214,0.0232,0.0229,0.0231,0.0239,0.0242,0.0243,0.0253,0.0282,0.0247,0.0247,0.0272,0.0273,0.0273,0.0341,0,0,0,0,0,0,0.0166,0.0168,0.0177,0.0186,0.019,0.0215,0.0211,0.0214,0.0229,0.0231,0.0242,0.0243,0.0242,0.0253,0.0254,0.0282,0.0248,0.0271,0.0272,0.0273,0.0339,0.0344,0.0349,0,0,0,0,0,0.0165,0.0179,0.0177,0.0179,0.0199,0.0216,0.022,0.023,0.023,0.0245,0.0247,0.0243,0.0258,0.0253,0.0255,0.0284,0.0271,0.0272,0.0273,0.0336,0.0343,0.0349,0,0,0,0,0,0,0.0176,0.0182,0.018,0.0197,0.0207,0.0218,0.0232,0.0236,0.0251,0.0251,0.025,0.0251,0.0271,0.0261,0.0256,0.029,0.0263,0.0265,0.0311,0.0318,0.0323,0.0319,0.0248,0,0,0,0,0,0.0179,0.0191,0.0196,0.021,0.0214,0.0224,0.0233,0.0239,0.0248,0.0256,0.0259,0.0261,0.0276,0.0283,0.0286,0.0306,0.0264,0.0322,0.0328,0.0332,0.0329,0.0283,0.0283,0.0276,0.0276,0.0276,0,0,0.0186,0.0191,0.0198,0.0213,0.0221,0.0241,0.0231,0.0248,0.0268,0.0253,0.0278,0.028,0.0283,0.0308,0.0316,0.0305,0.0312,0.0334,0.0338,0.0331,0.0284,0.0284,0.0285,0.0277,0.0277,0.0277,0,0,0.0208,0.0211,0.0228,0.0239,0.0251,0.0259,0.0264,0.0276,0.0285,0.0305,0.0303,0.0315,0.0331,0.0342,0.035,0.0382,0.034,0.0387,0.0417,0.0373,0.0373,0.0373,0.032,0.0314,0.0392,0.0392,0.0392,0,0.0217,0.0241,0.0237,0.0258,0.0275,0.0268,0.0298,0.0306,0.0319,0.0329,0.0319,0.0349,0.0349,0.0389,0.04,0.0397,0.0355,0.0399,0.038,0.0379,0.0377,0.0323,0.0315,0.0395,0.0395,0.0395,0.0394,0,0.0249,0.0274,0.0286,0.0311,0.0328,0.0352,0.0358,0.0372,0.0377,0.0382,0.0411,0.0409,0.0429,0.0434,0.043,0.0436,0.0404,0.0391,0.0366,0.0382,0.0324,0.0315,0.04,0.0399,0.0398,0.0397,0,0,0.0265,0.0302,0.031,0.0337,0.0361,0.0383,0.0409,0.0438,0.0459,0.0462,0.0493,0.0511,0.0503,0.0509,0.0507,0.047,0.0425,0.0428,0.0424,0.0378,0.0314,0.0315,0.0305,0.0406,0.0405,0.0404,0.0277,0,0.0297,0.035,0.0361,0.0421,0.0452,0.046,0.0493,0.0513,0.0516,0.0537,0.0533,0.0561,0.0535,0.0555,0.0515,0.0452,0.0405,0.046,0.0302,0.0297,0.0299,0.0297,0.04,0.027,0.0268,0.0266,0.0265,0,0.0331,0.0366,0.0426,0.0489,0.0504,0.0539,0.0589,0.0614,0.0629,0.0634,0.0644,0.0632,0.0616,0.0581,0.0465,0.0499,0.0409,0.0343,0.0336,0.0307,0.0283,0.0249,0.0249,0.025,0.0251,0.0252,0.0253,0,0.0352,0.0417,0.047,0.049,0.055,0.0587,0.0625,0.0649,0.0681,0.0696,0.0717,0.0682,0.0679,0.0565,0.0439,0.0446,0.028,0.0274,0.0187,0.0185,0.0191,0.0192,0.017,0.017,0.017,0.0171,0.0171,0,0.0385,0.043,0.0489,0.0519,0.06,0.0627,0.07,0.0724,0.0762,0.0806,0.0776,0.0789,0.0669,0.0572,0.0442,0.0288,0.028,0.0184,0.0154,0.0222,0.0229,0.0184,0.0187,0.0166,0.0167,0.0168,0.0169,0,0.0397,0.0431,0.0501,0.0578,0.0612,0.067,0.0768,0.0811,0.0838,0.0892,0.0907,0.086,0.0741,0.0598,0.0404,0.0304,0.0148,0.0089,0.0164,0.0141,0.0077,0.0085,-0.0015,-0.0016,-0.0017,-0.0018,-0.0018,0,0.0409,0.0442,0.0543,0.0593,0.0635,0.0725,0.079,0.0852,0.0898,0.0931,0.0958,0.0876,0.0825,0.055,0.0391,0.0145,0.0113,0.0021,0.0059,0.0078,0.0058,0.0068,0.0077,-0.002,-0.002,-0.002,-0.002,0,0.0428,0.0461,0.0519,0.0625,0.0707,0.0795,0.089,0.0932,0.0995,0.1021,0.0997,0.0885,0.0751,0.0554,0.0365,0.0187,0.0079,0.0012,0.0013,0.0047,0.0071,0.0055,0.0065,-0.0023,-0.0023,-0.0022,-0.0022,0,0.0445,0.0484,0.056,0.0657,0.0753,0.0838,0.0891,0.0951,0.1002,0.104,0.1019,0.0891,0.0818,0.0574,0.0394,0.023,0.0195,0.0133,0.0127,0.0128,0.0216,0.0271,0.0206,0,0,0,0,0,0.046,0.0503,0.0588,0.0692,0.0784,0.0847,0.0945,0.0987,0.105,0.1039,0.1035,0.0913,0.0682,0.0579,0.0416,0.0372,0.0157,0.0173,0.0081,-0.0039,-0.0035,0.0045,0,0,0,0,0,0,0.0469,0.0538,0.0584,0.0701,0.0775,0.0882,0.0947,0.0989,0.0985,0.1016,0.0892,0.0861,0.063,0.0774,0.0408,0.0362,0.0278,0.0074,0.007,-0.0041,-0.0038,-0.0035,0.0049,0,0,0,0,0]}]]